Stations météo

réclame
Mon MeteoGroup
Decimomannu, Italie (16546): Température de l'air & dewpoint: 20.09.2018 09:00:00 - 26.09.2018 09:00:00 (CEST)Decimomannu, Italie (16546): Vitesse du vent: 20.09.2018 09:00:00 - 26.09.2018 09:00:00 (CEST)Decimomannu, Italie (16546): Direction du vent: 20.09.2018 09:00:00 - 26.09.2018 09:00:00 (CEST)Decimomannu, Italie (16546): reduced air pressure: 20.09.2018 09:00:00 - 26.09.2018 09:00:00 (CEST)Decimomannu, Italie (16546): visibility: 20.09.2018 09:00:00 - 26.09.2018 09:00:00 (CEST)
Date & Time tt [°C] td [°C] ff [km/h] ff [knt] dd ppp [hPa] vv [km]
26.09.2018 09:00:00 - - - - - - -
26.09.2018 08:00:00 17,6 14,9 11 6 NNE 1025,6 15
26.09.2018 07:00:00 - - - - - - -
26.09.2018 06:00:00 - - - - - - -
26.09.2018 05:00:00 18,8 15,5 11 6 N 1024,8 12
26.09.2018 04:00:00 - - - - - - -
26.09.2018 03:00:00 - - - - - - -
26.09.2018 02:00:00 19,6 15,3 13 7 N 1024,2 12
26.09.2018 01:00:00 - - - - - - -
26.09.2018 00:00:00 - - - - - - -
25.09.2018 23:00:00 21,0 16,4 11 6 ENE 1024,1 12
25.09.2018 22:00:00 - - - - - - -
25.09.2018 21:00:00 - - - - - - -
25.09.2018 20:00:00 21,4 19,5 15 8 NE 1021,9 12
25.09.2018 19:00:00 - - - - - - -
25.09.2018 18:00:00 - - - - - - -
25.09.2018 17:00:00 22,8 21,1 5 3 E 1020,8 15
25.09.2018 16:00:00 - - - - - - -
25.09.2018 15:00:00 - - - - - - -
25.09.2018 14:00:00 25,0 22,1 15 8 NNE 1020,7 8
25.09.2018 13:00:00 - - - - - - -
25.09.2018 12:00:00 - - - - - - -
25.09.2018 11:00:00 23,2 20,0 8 4 NNW 1020,5 20
25.09.2018 10:00:00 - - - - - - -
25.09.2018 09:00:00 - - - - - - -
25.09.2018 08:00:00 16,0 14,7 5 3 NNW 1019,6 15
25.09.2018 07:00:00 - - - - - - -
25.09.2018 06:00:00 - - - - - - -
25.09.2018 05:00:00 16,8 16,3 9 5 NNE 1018,7 12
25.09.2018 04:00:00 - - - - - - -
25.09.2018 03:00:00 - - - - - - -
25.09.2018 02:00:00 17,6 17,3 4 2 WNW 1018,9 20
25.09.2018 01:00:00 - - - - - - -
25.09.2018 00:00:00 - - - - - - -
24.09.2018 23:00:00 20,0 18,7 15 8 NNW 1018,3 20
24.09.2018 22:00:00 - - - - - - -
24.09.2018 21:00:00 - - - - - - -
24.09.2018 20:00:00 23,2 17,4 22 12 NW 1017,2 20
24.09.2018 19:00:00 - - - - - - -
24.09.2018 18:00:00 - - - - - - -
24.09.2018 17:00:00 27,6 19,9 35 19 NW 1016,6 20
24.09.2018 16:00:00 - - - - - - -
24.09.2018 15:00:00 - - - - - - -
24.09.2018 14:00:00 30,2 25,3 37 20 NW 1016,6 20
24.09.2018 13:00:00 - - - - - - -
24.09.2018 12:00:00 - - - - - - -
24.09.2018 11:00:00 27,0 22,2 34 18 NNW 1016,8 12
24.09.2018 10:00:00 - - - - - - -
24.09.2018 09:00:00 - - - - - - -
24.09.2018 08:00:00 20,2 18,5 8 4 NNW 1016,8 12
24.09.2018 07:00:00 - - - - - - -
24.09.2018 06:00:00 - - - - - - -
24.09.2018 05:00:00 20,4 18,7 8 4 NW 1017,9 14
24.09.2018 04:00:00 - - - - - - -
24.09.2018 03:00:00 - - - - - - -
24.09.2018 02:00:00 21,0 19,7 8 4 NNW 1018,2 15
24.09.2018 01:00:00 - - - - - - -
24.09.2018 00:00:00 - - - - - - -
23.09.2018 23:00:00 21,4 20,2 11 6 N 1019,1 15
23.09.2018 22:00:00 - - - - - - -
23.09.2018 21:00:00 - - - - - - -
23.09.2018 20:00:00 24,4 22,3 15 8 NW 1018,6 16
23.09.2018 19:00:00 - - - - - - -
23.09.2018 18:00:00 - - - - - - -
23.09.2018 17:00:00 29,0 18,2 24 13 NNW 1017,9 30
23.09.2018 16:00:00 - - - - - - -
23.09.2018 15:00:00 - - - - - - -
23.09.2018 14:00:00 30,6 21,4 9 5 W 1018,8 30
23.09.2018 13:00:00 - - - - - - -
23.09.2018 12:00:00 - - - - - - -
23.09.2018 11:00:00 25,4 22,1 8 4 WNW 1020,1 30
23.09.2018 10:00:00 - - - - - - -
23.09.2018 09:00:00 - - - - - - -
23.09.2018 08:00:00 16,8 15,5 8 4 WNW 1019,6 30
23.09.2018 07:00:00 - - - - - - -
23.09.2018 06:00:00 - - - - - - -
23.09.2018 05:00:00 17,0 15,7 13 7 N 1019,8 15
23.09.2018 04:00:00 - - - - - - -
23.09.2018 03:00:00 - - - - - - -
23.09.2018 02:00:00 18,2 17,0 9 5 NNE 1019,9 15
23.09.2018 01:00:00 - - - - - - -
23.09.2018 00:00:00 - - - - - - -
22.09.2018 23:00:00 21,0 19,7 15 8 NW 1020,0 15
22.09.2018 22:00:00 - - - - - - -
22.09.2018 21:00:00 - - - - - - -
22.09.2018 20:00:00 23,8 15,8 16 9 WNW 1018,8 15
22.09.2018 19:00:00 - - - - - - -
22.09.2018 18:00:00 - - - - - - -
22.09.2018 17:00:00 28,0 20,0 35 19 NW 1018,0 25
22.09.2018 16:00:00 - - - - - - -
22.09.2018 15:00:00 - - - - - - -
22.09.2018 14:00:00 28,6 21,9 29 16 NW 1018,3 25
22.09.2018 13:00:00 - - - - - - -
22.09.2018 12:00:00 - - - - - - -
22.09.2018 11:00:00 25,2 21,9 22 12 NNW 1018,8 12
22.09.2018 10:00:00 - - - - - - -
22.09.2018 09:00:00 - - - - - - -
22.09.2018 08:00:00 19,8 17,9 11 6 N 1017,4 25
22.09.2018 07:00:00 - - - - - - -
22.09.2018 06:00:00 - - - - - - -
22.09.2018 05:00:00 21,0 19,3 11 6 N 1016,7 12
22.09.2018 04:00:00 - - - - - - -
22.09.2018 03:00:00 - - - - - - -
22.09.2018 02:00:00 20,4 18,7 9 5 NNE 1016,8 15
22.09.2018 01:00:00 - - - - - - -
22.09.2018 00:00:00 - - - - - - -
21.09.2018 23:00:00 23,0 21,8 13 7 NW 1015,8 15
21.09.2018 22:00:00 - - - - - - -
21.09.2018 21:00:00 - - - - - - -
21.09.2018 20:00:00 25,0 23,6 9 5 NNW 1013,7 15
21.09.2018 19:00:00 - - - - - - -
21.09.2018 18:00:00 - - - - - - -
21.09.2018 17:00:00 27,0 21,5 9 5 NW 1012,8 20
21.09.2018 16:00:00 - - - - - - -
21.09.2018 15:00:00 - - - - - - -
21.09.2018 14:00:00 26,0 21,7 15 8 N 1013,7 15
21.09.2018 13:00:00 - - - - - - -
21.09.2018 12:00:00 - - - - - - -
21.09.2018 11:00:00 23,4 21,1 16 9 NW 1013,5 20
21.09.2018 10:00:00 - - - - - - -
21.09.2018 09:00:00 - - - - - - -
21.09.2018 08:00:00 21,0 19,7 15 8 NNW 1011,8 12
21.09.2018 07:00:00 - - - - - - -
21.09.2018 06:00:00 - - - - - - -
21.09.2018 05:00:00 21,0 19,5 18 10 NNW 1012,2 12
21.09.2018 04:00:00 - - - - - - -
21.09.2018 03:00:00 - - - - - - -
21.09.2018 02:00:00 21,0 19,3 5 3 NNW 1013,4 12
21.09.2018 01:00:00 - - - - - - -
21.09.2018 00:00:00 - - - - - - -
20.09.2018 23:00:00 22,0 20,3 15 8 NW 1013,8 8
20.09.2018 22:00:00 - - - - - - -
20.09.2018 21:00:00 - - - - - - -
20.09.2018 20:00:00 22,8 21,8 15 8 WNW 1013,8 8
20.09.2018 19:00:00 - - - - - - -
20.09.2018 18:00:00 - - - - - - -
20.09.2018 17:00:00 25,4 23,3 26 14 NW 1013,9 15
20.09.2018 16:00:00 24,0 23,0 15 8 N - 10
20.09.2018 15:00:00 28,0 23,0 22 12 WNW - 10
20.09.2018 14:00:00 28,0 22,7 21 11 NW 1015,5 20
20.09.2018 13:00:00 27,0 21,0 18 10 NNW - 10
20.09.2018 12:00:00 - - - - - - -
20.09.2018 11:00:00 24,2 21,9 15 8 NW 1016,7 15
20.09.2018 10:00:00 - - - - - - -
20.09.2018 09:00:00 - - - - - - -

tt = Température de l'air
td = dewpoint
ff = Vitesse du vent
dd = Direction du vent
ppp = reduced air pressure
vv = visibility

stations d'obs. à proximité